Content
SEND FEEDBACK

Daily
Averages
Monthly
Summary
United States of America

PEOA, UTAH


Home > North America > United States > Utah
Elevation: 6045 feet     Latitude: 40 48N     Longitude: 111 24W

WEATHER
 
SELECT A DAY
Number of Records: 105,442;   Date Range: 2/4/02 - 11/27/14
 
SHARE

PRINT THIS DATA

[ ← Previous Day ]
WEATHER ALMANAC - JANUARY 31, 2013
[ Next Day → ]
[ °C ]   °F
Weather ElementAverageHighLow
Temperature30.1 °F41 °F (2:55 pm)23 °F (6:15 am)
Dewpoint26.4 °F30.2 °F (2:35 pm)21.2 °F (6:35 am)
Humidity86.5 %100 % (12:35 am)61 % (2:55 pm)
Barometer30.27 in30.33 in (10:55 am)30.20 in (12:35 am)
Wind Speed0.4 mph4.6 mph (4:35 am)
Weather ElementAverage
Visibility6.1 mi
Wind DirectionNNE (19.3 °)

Weather ElementTotal
Precipitation---
Heating Degree Days33 (Base 65)
Averaged from 71 records on January 31, 2013
WEATHER CONDITIONS BREAKOUT
WIND DIRECTION BREAKOUT
WEATHER BY HOUR - JANUARY 31, 2013
[ °C ]   °F
Local TimeTemperatureDewpointHumidityBarometerVisibilityWind DirectionWind SpeedGust SpeedPrecipitationEventsConditions
12:35 AM28.4 °F28.4 °F100 %30.20 in3.0 miSW (220°)3.5 mphSnowLight Snow
12:55 AM28.4 °F28.4 °F100 %30.22 in2.5 miCalmSnowLight Snow
1:15 AM30.2 °F28.4 °F93 %30.21 in3.0 miCalmSnowLight Snow
1:35 AM30.2 °F28.4 °F93 %30.22 in2.0 miWest (270°)3.5 mphSnowLight Snow
1:55 AM30.2 °F28.4 °F93 %30.22 in1.8 miCalmSnowLight Snow
2:15 AM30.2 °F28.4 °F93 %30.23 in2.0 miCalmSnowLight Snow
2:35 AM30.2 °F28.4 °F93 %30.24 in2.0 miCalmSnowLight Snow
2:55 AM30.2 °F28.4 °F93 %30.24 in1.8 miCalmSnowLight Snow
3:15 AM30.2 °F28.4 °F93 %30.24 in1.8 miCalmSnowLight Snow
3:35 AM30.2 °F28.4 °F93 %30.25 in1.8 miCalmSnowLight Snow
3:55 AM30.2 °F28.4 °F93 %30.24 in1.8 miCalmSnowLight Snow
4:15 AM28.4 °F28.4 °F100 %30.25 in2.0 miCalmSnowLight Snow
4:35 AM30.2 °F28.4 °F93 %30.25 in2.5 miEast (90°)4.6 mphSnowLight Snow
4:55 AM30.2 °F28.4 °F93 %30.25 in3.0 miCalmOvercast
5:15 AM30.2 °F28.4 °F93 %30.25 in2.5 miCalmOvercast
5:35 AM28.4 °F28.4 °F100 %30.26 in0.5 miCalmFogLight Freezing Fog
5:55 AM26.6 °F24.8 °F93 %30.26 in5.0 miCalmOvercast
6:15 AM23.0 °F23.0 °F100 %30.26 in7.0 miCalmOvercast
6:35 AM23.0 °F21.2 °F93 %30.27 in5.0 miCalmOvercast
6:55 AM23.0 °F21.2 °F93 %30.27 in10.0 miCalmOvercast
7:15 AM23.0 °F21.2 °F93 %30.28 in10.0 miCalmOvercast
7:35 AM23.0 °F23.0 °F100 %30.29 in1.5 miCalmOvercast
7:55 AM24.8 °F23.0 °F93 %30.29 in0.2 miCalmFogLight Freezing Fog
8:15 AM26.6 °F26.6 °F100 %30.29 in0.2 miCalmFogLight Freezing Fog
8:35 AM28.4 °F26.6 °F93 %30.30 in0.2 miCalmFogLight Freezing Fog
8:55 AM28.4 °F26.6 °F93 %30.31 in0.2 miCalmFogLight Freezing Fog
9:15 AM28.4 °F28.4 °F100 %30.32 in0.2 miCalmFogLight Freezing Fog
9:35 AM28.4 °F28.4 °F100 %30.32 in0.2 miEast (100°)3.5 mphFogLight Freezing Fog
9:55 AM26.6 °F26.6 °F100 %30.32 in0.2 miCalmFogLight Freezing Fog
10:15 AM26.6 °F26.6 °F100 %30.32 in0.2 miCalmFogLight Freezing Fog
10:35 AM30.2 °F28.4 °F93 %30.32 in0.2 miCalmFogLight Freezing Fog
10:55 AM30.2 °F26.6 °F86 %30.33 in0.2 miCalmFogLight Freezing Fog
11:15 AM30.2 °F26.6 °F86 %30.33 in0.2 miCalmFogLight Freezing Fog
11:35 AM30.2 °F26.6 °F86 %30.32 in0.2 miCalmFogLight Freezing Fog
11:55 AM32.0 °F28.4 °F87 %30.32 in2.5 miCalmHaze
12:15 PM33.8 °F28.4 °F81 %30.31 in10.0 miCalmScattered Clouds
12:35 PM33.8 °F28.4 °F81 %30.30 in10.0 miCalmScattered Clouds
12:55 PM32.0 °F28.4 °F87 %30.29 in7.0 miCalmScattered Clouds
1:15 PM32.0 °F28.4 °F87 %30.28 in10.0 miCalmScattered Clouds
1:35 PM33.8 °F28.4 °F81 %30.28 in10.0 miCalmScattered Clouds
1:55 PM35.6 °F28.4 °F75 %30.26 in10.0 miCalmScattered Clouds
2:15 PM35.6 °F28.4 °F75 %30.26 in10.0 miCalmClear
2:35 PM37.4 °F30.2 °F75 %30.26 in10.0 miCalmScattered Clouds
2:55 PM41.0 °F28.4 °F61 %30.26 in10.0 miCalmMostly Cloudy
3:15 PM37.4 °F26.6 °F65 %30.26 in10.0 miCalmOvercast
3:35 PM37.4 °F28.4 °F70 %30.26 in10.0 miNorth (360°)4.6 mphMostly Cloudy
3:55 PM39.2 °F28.4 °F65 %30.26 in10.0 miCalmScattered Clouds
4:15 PM33.8 °F26.6 °F75 %30.26 in10.0 miCalmClear
4:35 PM35.6 °F26.6 °F70 %30.26 in10.0 miCalmScattered Clouds
4:55 PM33.8 °F26.6 °F75 %30.26 in10.0 miCalmScattered Clouds
5:15 PM33.8 °F26.6 °F75 %30.26 in10.0 miSSW (200°)3.5 mphMostly Cloudy
5:35 PM32.0 °F24.8 °F75 %30.26 in10.0 miCalmScattered Clouds
5:55 PM32.0 °F24.8 °F75 %30.26 in10.0 miCalmMostly Cloudy
6:15 PM32.0 °F24.8 °F75 %30.27 in10.0 miCalmOvercast
6:35 PM32.0 °F26.6 °F80 %30.28 in10.0 miCalmOvercast
6:55 PM32.0 °F26.6 °F80 %30.28 in10.0 miCalmOvercast
7:15 PM30.2 °F24.8 °F80 %30.28 in10.0 miCalmOvercast
7:35 PM30.2 °F24.8 °F80 %30.28 in10.0 miCalmMostly Cloudy
7:55 PM28.4 °F24.8 °F86 %30.28 in10.0 miCalmOvercast
8:15 PM30.2 °F24.8 °F80 %30.27 in10.0 miCalmOvercast
8:35 PM30.2 °F24.8 °F80 %30.27 in10.0 miCalmOvercast
8:55 PM28.4 °F23.0 °F80 %30.27 in10.0 miCalmOvercast
9:15 PM28.4 °F24.8 °F86 %30.27 in10.0 miCalmOvercast
9:35 PM30.2 °F26.6 °F86 %30.27 in10.0 miCalmOvercast
9:55 PM28.4 °F24.8 °F86 %30.27 in10.0 miCalmOvercast
10:15 PM28.4 °F24.8 °F86 %30.27 in10.0 miSE (130°)3.5 mphOvercast
10:35 PM28.4 °F24.8 °F86 %30.27 in10.0 miCalmOvercast
10:55 PM28.4 °F23.0 °F80 %30.27 in10.0 miCalmOvercast
11:15 PM26.6 °F23.0 °F86 %30.27 in10.0 miCalmOvercast
11:35 PM24.8 °F21.2 °F86 %30.27 in10.0 miCalmMostly Cloudy
11:55 PM24.8 °F21.2 °F86 %30.27 in10.0 miCalmOvercast
Hourly data recorded from K36U, located miles away from Peoa, Utah







STORIES FROM OUR PARTNERS